Location: Madrid
(40.4167°N, 3.7036°W)
Time: 14:34:49
(UTC+00:00)

ISS - Pass Details

Date: 11 July 2024
Orbit: 410 x 424 km, 51.6° (Epoch: 14 July)

Event Time Altitude Azimuth Distance (km) Brightness Sun altitude
Rises 00:12:01 0° 304° (NW) 2,342 0.5 -27.5°
Reaches altitude 10° 00:15:11 10° 337° (NNW) 1,482 -0.1 -27.5°
Maximum altitude 00:16:35 12° 2° (N) 1,365 -0.2 -27.5°
Drops below altitude 10° 00:17:58 10° 27° (NNE) 1,484 -0.2 -27.5°
Sets 00:21:09 0° 60° (ENE) 2,350 0.4 -27.5°
